Location: D�pe
(52.6057°N, 8.1808°E)
Time: 07:25:34
(UTC+00:00)

HJ-1C - Pass Details

Date: 29 October 2020
Orbit: 429 x 444 km, 97.1° (Epoch: 01 December)

Event Time Altitude Azimuth Distance (km) Brightness Sun altitude
Exits shadow 18:21:27 55° 347° (NNW) 549 3.8 -21.6°
Drops below altitude 10° 18:24:11 10° 347° (NNW) 1,588 6.4 -22.0°
Sets 18:26:13 0° 347° (NNW) 2,464 7.4 -22.3°
